STARLINK-5027, 55370

Orbit data source: Space-Track

STARLINK-5027, 55370 is a payload satellite owned by SpaceX/Seattle (US) in LEO that was launched on Thu, 26 Jan 2023 UTC via an FALCON 9 launch vehicle from the Air Force Eastern Test Range (AFETR). Payload-class satellites include a variety of spacecraft equipped with specific instruments for various scientific and technological missions. These include communications satellites like Starlink; space stations such as the ISS; scientific satellites like the Hubble; Earth observation satellites from companies like Planet Labs, Umbra, and HawkEye 360; GPS; miniature CubeSats for education and research; and military/defense satellites.

Loading next visibility...
Identifier
55370, 2023-013AR
Orbit
LEO
Country
Flag of USUS
Related business
Manufacturer
SpaceX/Seattle
Mission
Operational Commercial Communications
Bus & Motor
STARLINK, Unknown motor
Mass
305 kg wet, ~290 kg dry
Launch date (UTC)
2023-01-26 (3 years ago)
Launch vehicle
FALCON 9
Launch site
Air Force Eastern Test Range (AFETR)
Object type
Payload
Rocket body
Debris
Shape & HBR
Box + 1 Pan, 10.1 m
Radar Cross Section
13.562 m², Large (>1 m²)

Expand to show TLE details & history
Last TLE update: 17 hours ago

TLE from 17 hours ago
0 STARLINK-5027
1 55370U 23013AR  25348.89213176  .00000055  00000-0  19131-4 0  9997
2 55370  43.0038  54.0921 0001083 269.8558  90.2160 15.02531246158805
Epoch: 2025-12-14T21:24Z
TLE epoch observation values (Epoch: 2025-12-14T21:24:40.184Z)
Latitude
-0.00002°
Longitude
9.12612°
Altitude
558.875 km
Speed
7.584 km/s
True Right ascension
03h 36m 22s
True Declination
0° 00' 00"
Sunlit
Object was in full shadow at epoch
Visualization orbit readout
Latitude
Unknown
Longitude
Unknown
Altitude
Unknown
Speed
Unknown
Apparent Right ascension
Unknown
Apparent Declination
Unknown
Sunlit
N/A
Visualization observer readout
Local Sidereal Time
13:19:49
Azimuth
Unknown
Elevation
Unknown
Doppler factor
Unknown
Orbital elements
Apogee altitude
561.769 km
Perigee altitude
560.266 km
Semi-major axis
6,939.154 km
Eccentricity
0.00011
Inclination
43.0038°
RAAN
54.0921°
Arg. of periapsis
269.8558°
True anomaly
90.22841°
Mean anomaly
90.216°
Eccentric anomaly
90.22221°
Mean motion
3.75477 °/min
Orbital period
95.88 mins
BSTAR
0.000019131
Loading maneuver chart data...
Computing Atmospheric mass density...
Loading historical data...
Loading historical data...
Loading historical data...
Loading historical data...
Loading historical data...
Loading historical data...
Loading historical data...

Documentation

Showing up to 5 results
|